CAPE
1120 1027 998 960 925 833 684 568 619 564 504 554 546 526 544 555 668 691 627 586 538 512 582 617 573 511 656 678 542 424 435 524 618 639 586 535 500 460 549 549 428 377
1052 1046 1039 1019 981 891 857 801 628 543 489 542 604 622 607 543 638 671 647 595 602 675 742 768 623 575 710 736 667 536 452 466 494 536 482 403 414 485 614 577 468 466
788 850 959 1019 1039 1019 995 858 729 586 519 441 593 586 598 551 660 671 638 614 649 715 852 862 762 617 674 731 741 586 536 497 460 460 452 448 424 517 591 542 562 547
678 716 812 937 976 973 889 804 653 616 608 446 491 483 436 579 712 716 665 574 541 588 729 829 852 749 743 869 762 563 606 531 463 440 485 492 434 464 490 496 511 610
519 565 664 777 847 845 798 759 692 584 672 580 530 458 488 660 744 776 730 680 588 560 582 714 794 793 783 857 766 636 644 588 480 469 581 558 526 585 561 546 512 620
334 346 501 664 778 718 763 676 707 693 641 605 572 538 597 708 785 818 817 739 606 610 677 655 674 700 731 798 745 701 683 600 632 650 673 678 711 715 712 660 601 621
18 270 522 550 682 740 414 514 730 688 678 743 632 604 718 814 816 805 819 692 520 568 647 568 586 592 628 569 708 736 656 662 695 652 736 760 753 789 802 772 692 686
272 430 540 475 471 467 32 354 603 715 773 730 653 570 752 843 830 820 807 553 466 575 584 486 497 491 430 540 794 754 730 738 734 690 784 821 803 793 815 792 744 639
603 706 579 358 228 141 170 134 332 613 714 739 647 688 801 828 778 720 558 479 527 495 347 308 351 385 405 604 766 736 768 765 727 781 833 805 752 799 781 763 725 537
568 613 536 492 410 482 358 320 373 505 608 657 666 738 800 743 694 517 480 488 405 293 151 0 0 368 401 478 539 568 590 584 626 746 747 606 624 699 692 644 480 512
517 562 527 451 436 516 433 236 305 454 594 600 607 684 771 740 557 458 430 358 276 237 203 217 346 334 316 341 362 387 396 452 495 517 509 514 552 588 694 696 655 568
445 430 415 410 408 490 487 378 578 587 588 682 742 748 779 623 488 383 368 353 260 230 209 0 0 258 292 256 272 316 344 332 372 391 503 530 529 577 657 690 651 557
510 487 444 408 416 532 633 561 697 727 689 778 813 770 648 528 448 297 347 339 298 283 218 0 0 0 0 0 231 258 271 266 259 332 544 557 562 585 618 631 597 525
357 481 494 422 469 540 519 568 686 765 652 729 744 588 491 450 346 366 366 313 309 102 0 0 0 0 0 0 0 44 215 186 186 239 455 600 614 599 592 516 458 446
15 350 485 517 520 475 441 471 566 734 665 595 566 477 385 261 336 363 217 168 0 0 134 147 150 137 143 143 157 191 173 120 122 140 247 402 573 614 567 421 380 327
62 101 344 469 590 586 524 439 572 695 719 560 513 520 451 320 313 184 196 0 0 142 134 112 121 138 145 165 182 170 75 0 48 69 156 292 462 445 425 377 293 155
2 196 290 390 478 538 520 468 455 603 629 413 388 606 446 201 102 172 165 0 0 57 105 108 102 128 157 86 5 0 0 0 0 47 158 252 379 430 298 213 154 0
2 214 285 406 476 527 458 281 309 255 290 322 393 373 197 88 96 102 12 0 0 81 79 80 92 120 63 0 0 0 0 0 0 0 150 260 346 323 193 179 60 0
12 9 284 294 327 332 177 152 165 222 287 286 153 102 47 113 55 0 0 0 0 0 15 42 51 56 35 0 0 0 0 0 0 0 124 193 265 216 0 108 89 0
130 34 233 199 168 141 86 66 60 143 102 58 92 47 17 7 0 0 0 0 70 75 34 21 41 44 17 0 0 0 0 15 0 0 0 114 194 154 62 0 0 0
59 125 169 232 213 130 67 77 70 141 75 84 82 61 0 0 0 0 0 0 0 0 65 64 53 47 0 0 0 0 0 0 95 29 0 0 0 0 0 0 0 0
8 75 181 155 216 152 107 144 102 77 70 84 74 35 0 0 0 0 0 0 0 0 6 49 53 0 0 0 0 0 0 50 121 41 0 0 0 0 0 0 0 0
17 27 119 104 103 140 135 190 155 51 37 42 53 9 16 35 0 0 0 0 0 0 0 0 0 0 0 0 0 0 81 107 86 0 0 0 0 0 0 0 0 0
3 18 47 25 31 8 12 48 102 41 66 9 49 0 43 5 0 0 0 0 0 0 0 0 0 0 0 0 0 0 0 9 0 0 0 63 0 0 0 0 0 0
4 4 10 28 38 19 10 10 9 21 15 4 34 28 42 0 0 0 0 0 0 0 0 0 0 0 0 0 0 0 0 0 0 0 0 0 0 0 91 91 79 114
1 0 13 11 21 38 39 20 22 9 10 12 2 24 36 0 0 0 0 0 0 0 0 0 0 0 0 50 53 59 60 42 0 0 0 0 102 65 1 58 96 32
Wind_Speed
21 21 24 26 24 24 24 23 23 23 23 22 21 21 22 24 25 25 25 25 23 22 22 23 23 22 23 23 23 23 22 20 21 21 20 20 21 21 20 20 19 19
25 26 27 26 24 23 21 20 21 21 22 23 22 23 24 25 25 25 25 24 24 23 24 25 23 22 22 22 23 24 23 22 21 22 21 21 21 21 19 18 18 20
28 26 25 23 21 19 18 19 20 20 21 22 23 22 22 23 25 26 25 24 24 24 25 25 25 23 22 22 23 23 23 22 22 22 22 21 22 21 18 18 18 17
30 30 27 23 21 18 17 19 20 21 21 22 24 25 22 22 25 26 25 24 25 25 26 27 25 24 23 23 23 23 22 21 22 23 22 23 21 21 19 17 18 19
30 31 28 24 20 19 19 18 20 25 28 27 24 21 19 20 24 26 26 26 26 27 27 27 25 24 24 24 23 23 23 23 24 23 23 22 21 21 18 18 18 19
30 31 28 25 21 17 20 26 29 25 21 19 19 24 22 21 23 24 25 26 26 27 27 26 25 25 25 25 24 23 24 24 23 23 23 23 22 20 19 18 20 20
nan 36 29 23 20 21 31 31 20 20 21 23 24 22 23 22 21 23 23 24 26 26 26 26 25 25 25 26 26 26 26 25 23 22 24 23 24 22 20 19 19 20
30 26 27 31 29 30 nan 19 18 22 22 22 21 24 25 25 23 24 24 24 25 25 26 26 25 25 25 26 28 28 27 25 24 23 24 24 23 22 20 20 20 21
27 28 29 28 31 28 20 16 24 23 24 23 23 25 26 26 24 23 24 24 25 25 26 26 25 25 25 26 27 28 27 25 23 23 24 23 22 21 21 21 21 21
25 28 27 28 25 23 19 24 26 23 23 24 25 26 25 24 23 23 24 25 26 26 26 nan nan 25 24 25 27 28 27 26 24 24 24 23 23 23 23 22 22 24
23 25 25 23 21 21 25 26 22 22 23 26 27 25 23 23 23 25 24 25 25 24 24 25 25 24 24 25 27 27 28 27 26 26 26 25 25 25 24 25 25 26
19 22 21 20 22 24 26 24 23 25 27 27 27 25 23 21 21 23 22 21 23 23 23 nan nan 23 23 24 26 28 29 29 29 29 28 27 27 27 27 26 27 27
15 18 18 19 23 26 26 26 25 25 27 29 27 23 22 21 21 22 21 21 22 23 22 nan nan nan nan nan 28 29 30 31 31 30 29 28 28 29 29 29 29 29
12 15 15 17 22 24 26 25 24 26 28 28 26 25 22 20 21 20 21 23 22 22 nan nan nan nan nan nan nan nan 30 32 32 31 30 29 30 31 31 31 30 30
nan 14 14 17 19 20 22 24 23 25 26 26 26 24 22 21 25 22 22 25 nan nan 23 23 24 25 25 25 27 29 31 32 31 31 31 30 31 31 31 31 32 31
nan 13 13 15 17 18 21 22 22 23 24 25 22 21 22 23 23 21 20 nan nan 25 24 24 24 24 23 25 27 30 nan nan nan nan 31 30 30 30 30 30 31 31
nan 12 12 13 15 18 19 22 22 21 21 22 21 21 22 21 21 21 20 nan nan nan 25 25 24 24 27 nan nan nan nan nan nan nan 29 28 27 27 27 29 30 nan
nan 10 11 13 14 14 15 20 21 21 21 20 20 22 22 nan nan 22 nan nan nan nan nan nan nan 27 nan nan nan nan nan nan nan nan 25 25 25 27 27 29 nan nan
nan nan 10 13 15 13 14 19 20 22 20 18 22 25 nan 23 nan nan nan nan nan nan nan nan nan nan nan nan nan nan nan nan nan nan 27 26 27 29 nan 32 nan nan
7 nan 11 11 14 14 nan nan nan 22 22 nan nan nan nan nan nan nan nan nan nan nan nan nan nan nan nan nan nan nan nan nan nan nan nan 29 30 31 nan nan nan nan
nan 9 10 9 11 14 nan nan nan 26 nan nan nan nan nan nan nan nan nan nan nan nan nan nan nan nan nan nan nan nan nan nan nan nan nan nan nan nan nan nan nan nan
nan nan 11 9 10 15 20 22 25 nan nan nan nan nan nan nan nan nan nan nan nan nan nan nan nan nan nan nan nan nan nan nan 34 nan nan nan nan nan nan nan nan nan
nan nan 12 12 11 15 20 23 24 nan nan nan nan nan nan nan nan nan nan nan nan nan nan nan nan nan nan nan nan nan nan 33 nan nan nan nan nan nan nan nan nan nan
nan nan nan nan nan nan nan nan 21 nan nan nan nan nan nan nan nan nan nan nan nan nan nan nan nan nan nan nan nan nan nan nan nan nan nan nan nan nan nan nan nan nan
nan nan nan nan nan nan nan nan nan nan nan nan nan nan nan nan nan nan nan nan nan nan nan nan nan nan nan nan nan nan nan nan nan nan nan nan nan nan nan nan nan 36
nan nan nan nan nan nan nan nan nan nan nan nan nan nan nan nan nan nan nan nan nan nan nan nan nan nan nan nan nan nan nan nan nan nan nan nan 34 nan nan nan nan nan
Wind_Direction
250 249 258 266 271 273 273 273 273 275 271 265 261 257 252 245 249 251 249 246 245 245 245 246 247 249 252 257 259 259 258 261 262 265 270 272 271 274 273 274 274 271
235 238 247 254 257 259 265 265 265 268 266 261 259 258 251 244 243 246 244 244 245 245 246 247 250 252 254 256 259 258 255 257 262 260 268 273 271 274 274 275 271 264
235 242 248 254 254 259 265 264 260 259 261 258 255 255 252 243 242 241 241 243 246 247 248 249 251 252 254 256 257 256 255 257 259 260 265 272 270 274 273 269 264 269
236 245 248 247 246 251 257 260 258 254 254 256 243 234 238 242 240 241 239 241 244 246 249 251 252 251 254 256 255 252 253 253 254 258 262 263 269 271 270 266 260 258
229 238 242 239 237 241 245 249 253 244 239 244 247 244 237 241 243 241 237 238 241 245 250 253 252 253 254 254 253 250 248 248 251 258 262 264 265 267 265 264 264 262
225 231 232 226 226 229 237 238 245 256 265 268 255 241 237 240 244 244 241 241 242 247 250 252 253 252 254 254 251 248 247 249 254 259 262 263 259 258 259 261 263 264
nan 227 233 233 225 218 231 242 255 258 255 250 251 249 244 243 244 243 243 244 247 249 251 252 253 253 252 252 250 248 247 252 255 256 258 255 253 253 252 258 262 262
231 230 230 228 222 218 nan 250 253 250 252 255 256 248 248 249 246 240 240 244 246 249 250 251 252 252 253 251 250 248 249 249 253 255 255 254 254 254 253 252 256 260
225 227 230 232 230 236 250 258 253 248 247 252 254 251 249 250 247 243 244 245 243 245 248 249 249 250 249 251 250 252 254 252 252 256 257 257 256 257 255 254 256 260
239 235 233 231 232 237 245 242 248 251 252 255 256 253 250 244 241 240 242 245 244 241 243 nan nan 245 246 248 252 254 255 255 254 255 257 258 259 258 257 258 259 258
240 238 234 233 232 236 246 252 257 260 256 254 252 249 244 241 239 238 239 241 245 243 243 246 246 245 244 244 246 250 253 253 254 255 256 256 257 258 256 258 259 260
237 242 240 242 242 240 244 250 255 254 252 248 244 243 238 235 237 238 237 236 238 241 243 nan nan 243 244 245 246 246 246 248 251 253 255 257 256 256 257 257 259 261
244 255 257 252 245 243 244 246 253 260 257 248 242 242 240 237 232 233 230 234 235 237 236 nan nan nan nan nan 246 246 247 250 251 253 254 254 254 255 255 257 261 263
257 266 267 259 249 245 245 247 250 251 250 249 244 240 230 229 235 231 230 229 231 231 nan nan nan nan nan nan nan nan 249 249 252 255 254 251 252 251 253 256 258 261
nan 278 273 266 259 254 249 248 251 252 248 240 239 241 238 223 229 230 234 231 nan nan 231 229 234 238 241 246 249 249 250 252 254 256 257 256 254 253 253 255 256 256
nan 289 281 270 265 261 254 251 249 248 245 238 234 236 235 235 234 230 229 nan nan 234 236 235 234 234 242 257 255 253 nan nan nan nan 259 260 258 256 253 252 252 252
nan 287 280 276 267 264 261 256 249 244 241 239 237 234 238 239 235 230 225 nan nan nan 245 237 236 235 249 nan nan nan nan nan nan nan 258 258 259 259 257 256 253 nan
nan 273 275 266 262 263 253 243 240 242 244 244 239 240 238 nan nan 232 nan nan nan nan nan nan nan 240 nan nan nan nan nan nan nan nan 256 256 257 257 257 257 nan nan
nan nan 275 276 270 262 243 232 234 240 244 244 238 230 nan 232 nan nan nan nan nan nan nan nan nan nan nan nan nan nan nan nan nan nan 258 256 258 260 nan 259 nan nan
266 nan 272 268 264 253 nan nan nan 239 241 nan nan nan nan nan nan nan nan nan nan nan nan nan nan nan nan nan nan nan nan nan nan nan nan 252 254 257 nan nan nan nan
nan 268 271 266 260 253 nan nan nan 237 nan nan nan nan nan nan nan nan nan nan nan nan nan nan nan nan nan nan nan nan nan nan nan nan nan nan nan nan nan nan nan nan
nan nan 265 254 251 249 245 242 247 nan nan nan nan nan nan nan nan nan nan nan nan nan nan nan nan nan nan nan nan nan nan nan 256 nan nan nan nan nan nan nan nan nan
nan nan 258 256 255 262 250 240 247 nan nan nan nan nan nan nan nan nan nan nan nan nan nan nan nan nan nan nan nan nan nan 253 nan nan nan nan nan nan nan nan nan nan
nan nan nan nan nan nan nan nan 245 nan nan nan nan nan nan nan nan nan nan nan nan nan nan nan nan nan nan nan nan nan nan nan nan nan nan nan nan nan nan nan nan nan
nan nan nan nan nan nan nan nan nan nan nan nan nan nan nan nan nan nan nan nan nan nan nan nan nan nan nan nan nan nan nan nan nan nan nan nan nan nan nan nan nan 252
nan nan nan nan nan nan nan nan nan nan nan nan nan nan nan nan nan nan nan nan nan nan nan nan nan nan nan nan nan nan nan nan nan nan nan nan 258 nan nan nan nan nan